User: anonymous   Login
Location: Eymir
(36.7333°N, 29.7833°E)
Time: 05:06:00
(UTC+00:00)
Language:

SL-12 R/B(2) - Orbit

View from above orbital plane
View from above orbital plane
View from above satellite
View from above satellite

Ground track
Ground track

The orbit is defined by the following mean orbital elements,

1 27473U          26067.00716159 +.00000000 +00000-0 -47900-3 0 00000
2 27473  63.4176  76.0382 0626308 348.0654  34.9275 12.01429410    07
Epoch (UTC): 08 March 2026 00:10:18
Eccentricity: 0.0626308
inclination: 63.4176°
perigee height: 1170 km
apogee height: 2179 km
right ascension of ascending node: 76.0382°
argument of perigee: 348.0654°
revolutions per day: 12.01429410
mean anomaly at epoch: 34.9275°

The dashed part of the orbit path shows where the satellite is in the earth's shadow,  

DLR